Weather in Újezd u Brna

Czech Republic     49°06′15″N   16°45′23″E
temp.,
°C
wind,
m/s
gust,
m/s
humid.,
%
clouds,
%
prec.,
mm/h
press.,
hPa
HPBL,
m
25 may, wed
wed2523:00+15ese228667 0.3 101115
02:00+14nnw2295100 2.1 101263
05:00+14nne2295100 0.4 101243
08:00+14ne2495100 1.2 1013198
11:00+15nw1195100 1.9 1014180
14:00+15nw4892100 3.3 1015575
17:00+12nnw3793100 1.2 1018316
20:00+12wnw239391 1.6 101896
26 may, thu
thu2623:00+10sw11950 0.0 102011
02:00+9sw229571 0.0 102015
05:00+9sw1192100 0.0 102010
08:00+13wsw2580100 0.0 1021249
11:00+20w610534 0.0 10211721
14:00+21wnw6953100 0.0 10201909
17:00+22wnw610522 0.0 10201585
20:00+17nw36735 0.0 1020104
27 may, fri
fri2723:00+12w22845 0.0 102210
02:00+11wsw11870 0.0 102210
05:00+10sw22895 0.0 102110
08:00+15wsw36730 0.0 1020339
11:00+21w695484 0.0 10171524
14:00+23w71150100 0.0 10152392
17:00+19nnw91268100 0.1 1016914
20:00+14nw51079100 0.2 1017716
28 may, sat
sat2823:00+11wnw229196 0.0 101815
02:00+9w119114 0.0 101711
05:00+7wnw228428 0.0 101711
08:00+12nw6116358 0.0 10171039
11:00+15wnw7124538 0.0 10172213
14:00+17nw811375 0.0 10172401
17:00+17nw79343 0.0 10152567
20:00+13nw22595 0.0 101623
29 may, sun
sun2923:00+8nnw117037 0.0 101810
02:00+7wnw11765 0.0 101810
05:00+5sw11835 0.0 101710
08:00+11wnw12645 0.0 1017308
11:00+15w23481 0.0 10151566
14:00+17w2240100 0.0 10132215
17:00+16nne224795 0.0 1012601
20:00+13e226310 0.0 101211